TimeEST,TemperatureF,Dew PointF,Humidity,Sea Level PressureIn,VisibilityMPH,Wind Direction,Wind SpeedMPH,Gust SpeedMPH,PrecipitationIn,Events,Conditions,WindDirDegrees,DateUTC
12:53 AM,57.9,55.9,93,30.03,9.0,WNW,10.4,-,N/A,,Overcast,290,2012-11-20 05:53:00
1:53 AM,57.9,55.9,93,30.02,10.0,WNW,10.4,-,N/A,,Overcast,300,2012-11-20 06:53:00
2:53 AM,59.0,55.9,90,30.00,9.0,WNW,9.2,-,N/A,,Overcast,300,2012-11-20 07:53:00
3:53 AM,59.0,55.9,90,30.00,10.0,WNW,8.1,-,N/A,,Overcast,290,2012-11-20 08:53:00
4:53 AM,60.1,57.0,90,30.00,10.0,NW,10.4,-,N/A,,Overcast,310,2012-11-20 09:53:00
5:53 AM,60.1,57.0,90,30.00,10.0,WNW,10.4,-,N/A,,Overcast,300,2012-11-20 10:53:00
6:53 AM,61.0,57.9,90,30.01,10.0,NW,12.7,-,N/A,,Overcast,310,2012-11-20 11:53:00
7:53 AM,61.0,57.9,90,30.02,10.0,NNW,12.7,-,N/A,,Overcast,330,2012-11-20 12:53:00
8:53 AM,63.0,59.0,87,30.04,10.0,NNW,12.7,-,N/A,,Overcast,330,2012-11-20 13:53:00
9:53 AM,66.0,60.1,81,30.04,10.0,NNW,15.0,20.7,N/A,,Overcast,340,2012-11-20 14:53:00
10:14 AM,68.0,60.8,78,30.04,10.0,NNW,16.1,20.7,N/A,,Overcast,330,2012-11-20 15:14:00
10:48 AM,69.8,60.8,73,30.04,10.0,NNW,20.7,26.5,N/A,,Mostly Cloudy,330,2012-11-20 15:48:00
10:53 AM,70.0,61.0,73,30.04,10.0,North,17.3,26.5,N/A,,Mostly Cloudy,350,2012-11-20 15:53:00
11:53 AM,72.0,62.1,71,30.01,10.0,NNW,17.3,28.8,N/A,,Mostly Cloudy,340,2012-11-20 16:53:00
12:40 PM,71.6,60.8,69,29.99,10.0,North,19.6,29.9,N/A,,Scattered Clouds,360,2012-11-20 17:40:00
12:53 PM,73.0,61.0,66,29.99,10.0,North,20.7,28.8,N/A,,Scattered Clouds,350,2012-11-20 17:53:00
2:53 PM,73.0,60.1,64,29.96,10.0,NNW,18.4,26.5,N/A,,Mostly Cloudy,330,2012-11-20 19:53:00
3:53 PM,71.1,60.1,68,29.96,10.0,North,15.0,-,N/A,,Partly Cloudy,350,2012-11-20 20:53:00
4:53 PM,69.1,60.1,73,29.97,10.0,North,12.7,19.6,N/A,,Mostly Cloudy,360,2012-11-20 21:53:00
5:53 PM,64.9,59.0,81,29.97,10.0,NNW,12.7,-,N/A,,Scattered Clouds,330,2012-11-20 22:53:00
6:27 PM,64.4,59.0,83,29.98,10.0,NNW,15.0,20.7,N/A,,Mostly Cloudy,340,2012-11-20 23:27:00
6:53 PM,64.0,59.0,84,29.98,10.0,NNW,11.5,-,N/A,,Overcast,340,2012-11-20 23:53:00
7:39 PM,62.6,57.2,82,30.00,10.0,NW,9.2,-,N/A,,Mostly Cloudy,320,2012-11-21 00:39:00
7:53 PM,62.1,57.9,86,30.00,10.0,NW,6.9,-,N/A,,Partly Cloudy,320,2012-11-21 00:53:00
8:12 PM,62.6,57.2,82,30.01,10.0,NNW,5.8,-,N/A,,Mostly Cloudy,330,2012-11-21 01:12:00
8:22 PM,62.6,57.2,82,30.01,10.0,NW,6.9,-,N/A,,Scattered Clouds,310,2012-11-21 01:22:00
8:53 PM,61.0,57.0,87,30.01,10.0,NW,8.1,-,N/A,,Mostly Cloudy,310,2012-11-21 01:53:00
9:16 PM,60.8,57.2,88,30.01,10.0,NW,6.9,-,N/A,,Partly Cloudy,310,2012-11-21 02:16:00
9:53 PM,60.1,57.0,90,30.01,10.0,NW,9.2,-,N/A,,Clear,310,2012-11-21 02:53:00
10:53 PM,59.0,55.9,90,30.01,10.0,NW,6.9,-,N/A,,Clear,320,2012-11-21 03:53:00
11:53 PM,57.9,55.0,90,30.00,10.0,NW,6.9,-,N/A,,Clear,320,2012-11-21 04:53:00